{"data":{"norad_id":39467,"epoch":"2026-09-20T02:18:33.329376Z","epoch_age_seconds":68466,"freshness":"FRESH","line1":"1 39467U 13072F   26263.09621909  .00008142  00000+0  36641-3 0  9994","line2":"2 39467 120.4643 301.5782 0169372  94.8591 267.1839 15.10364071129603","mean_motion":15.10364071,"eccentricity":0.0169372,"inclination_deg":120.4643,"raan_deg":301.5782,"arg_perigee_deg":94.8591,"mean_anomaly_deg":267.1839,"bstar":0.00036641,"rev_number":12960,"period_min":95.34125100358,"perigee_km":417.99814281289,"apogee_km":652.17951991484,"semimajor_km":6913.2258313639,"source":"CELESTRAK","updated_at":"2026-09-20T09:00:13.959600Z"}}